• In Czech Republic
  • List of Countries
  • For 7 days
  • Water Temperature
  • Satellite Maps
  • Weather Map
  • Weather Widgets
  • user-avatar
    Login

    Hourly Weather Konyrat

    Today, 24 September, Monday

    Time Temperature Precipitation Wind Pressure Humidity
    00:00 +14°C° 0 mm 5 mps 723 mmHg 57%
    01:00 +14°C° 0 mm 4 mps 724 mmHg 60%
    02:00 +13°C° 0 mm 4 mps 724 mmHg 62%
    03:00 +13°C° 0 mm 3 mps 724 mmHg 64%
    04:00 +12°C° 0 mm 3 mps 724 mmHg 67%
    05:00 +12°C° 0 mm 3 mps 724 mmHg 69%
    06:00 +12°C° 0 mm 3 mps 724 mmHg 66%
    07:00 +13°C° 0 mm 3 mps 725 mmHg 64%
    08:00 +13°C° 0 mm 3 mps 725 mmHg 62%
    09:00 +14°C° 0 mm 3 mps 725 mmHg 57%
    10:00 +16°C° 0 mm 3 mps 725 mmHg 52%
    11:00 +17°C° 0 mm 3 mps 725 mmHg 47%
    12:00 +17°C° 0 mm 3 mps 725 mmHg 44%
    13:00 +18°C° 0 mm 3 mps 725 mmHg 41%
    14:00 +18°C° 0 mm 3 mps 725 mmHg 38%
    15:00 +18°C° 0 mm 3 mps 726 mmHg 37%
    16:00 +18°C° 0 mm 4 mps 726 mmHg 36%
    17:00 +18°C° 0 mm 4 mps 726 mmHg 35%
    18:00 +18°C° 0 mm 4 mps 727 mmHg 35%
    19:00 +18°C° 0 mm 3 mps 727 mmHg 36%
    20:00 +17°C° 0 mm 3 mps 728 mmHg 37%
    21:00 +17°C° 0 mm 3 mps 728 mmHg 39%
    22:00 +15°C° 0 mm 4 mps 728 mmHg 42%
    23:00 +15°C° 0 mm 4 mps 729 mmHg 44%

    Tomorrow, 25 September, Tuesday

    Time Temperature Precipitation Wind Pressure Humidity
    00:00 +14°C° 0 mm 4 mps 729 mmHg 47%
    01:00 +13°C° 0 mm 4 mps 729 mmHg 50%
    02:00 +13°C° 0 mm 4 mps 729 mmHg 52%
    03:00 +12°C° 0 mm 4 mps 729 mmHg 54%
    04:00 +12°C° 0 mm 4 mps 729 mmHg 56%
    05:00 +11°C° 0 mm 4 mps 730 mmHg 57%
    06:00 +12°C° 0 mm 4 mps 730 mmHg 56%
    07:00 +12°C° 0 mm 4 mps 730 mmHg 54%
    08:00 +13°C° 0 mm 5 mps 731 mmHg 52%
    09:00 +14°C° 0 mm 4 mps 731 mmHg 48%
    10:00 +15°C° 0 mm 4 mps 731 mmHg 44%
    11:00 +17°C° 0 mm 3 mps 731 mmHg 40%
    12:00 +17°C° 0 mm 3 mps 731 mmHg 37%
    13:00 +18°C° 0 mm 3 mps 731 mmHg 34%
    14:00 +19°C° 0 mm 3 mps 730 mmHg 31%
    15:00 +19°C° 0 mm 3 mps 730 mmHg 31%
    16:00 +19°C° 0 mm 3 mps 730 mmHg 30%
    17:00 +19°C° 0 mm 4 mps 730 mmHg 30%
    18:00 +19°C° 0 mm 3 mps 730 mmHg 32%
    19:00 +18°C° 0 mm 3 mps 731 mmHg 34%
    20:00 +17°C° 0 mm 2 mps 731 mmHg 36%
    21:00 +17°C° 0 mm 2 mps 731 mmHg 38%
    22:00 +17°C° 0 mm 2 mps 731 mmHg 39%
    23:00 +16°C° 0 mm 2 mps 731 mmHg 41%

    Day after tomorrow, 26 September, Wednesday

    Time Temperature Precipitation Wind Pressure Humidity
    00:00 +16°C° 0 mm 3 mps 731 mmHg 44%
    01:00 +16°C° 0 mm 3 mps 730 mmHg 47%
    02:00 +14°C° 0 mm 4 mps 730 mmHg 51%
    03:00 +14°C° 0 mm 4 mps 730 mmHg 53%
    04:00 +13°C° 0 mm 4 mps 730 mmHg 56%
    05:00 +13°C° 0 mm 4 mps 731 mmHg 59%
    06:00 +14°C° 0 mm 5 mps 731 mmHg 56%
    07:00 +14°C° 0 mm 6 mps 731 mmHg 53%
    08:00 +15°C° 0 mm 6 mps 731 mmHg 50%
    09:00 +16°C° 0 mm 6 mps 731 mmHg 47%
    10:00 +17°C° 0 mm 6 mps 731 mmHg 44%
    11:00 +20°C° 0 mm 6 mps 731 mmHg 41%
    12:00 +20°C° 0 mm 6 mps 731 mmHg 39%
    13:00 +21°C° 0 mm 6 mps 730 mmHg 37%
    14:00 +22°C° 0 mm 6 mps 730 mmHg 35%
    15:00 +22°C° 0 mm 6 mps 730 mmHg 35%
    16:00 +22°C° 0 mm 6 mps 730 mmHg 34%
    17:00 +21°C° 0 mm 6 mps 729 mmHg 34%
    18:00 +21°C° 0 mm 5 mps 730 mmHg 36%
    19:00 +20°C° 0 mm 5 mps 730 mmHg 39%
    20:00 +19°C° 0 mm 4 mps 730 mmHg 41%
    21:00 +19°C° 0 mm 5 mps 730 mmHg 43%
    22:00 +17°C° 0 mm 5 mps 730 mmHg 45%
    23:00 +16°C° 0 mm 5 mps 729 mmHg 47%

    27 September, Thursday

    Time Temperature Precipitation Wind Pressure Humidity
    00:00 +16°C° 0 mm 6 mps 729 mmHg 49%
    01:00 +15°C° 0 mm 6 mps 729 mmHg 51%
    02:00 +15°C° 0 mm 6 mps 729 mmHg 53%
    03:00 +14°C° 0 mm 6 mps 729 mmHg 55%
    04:00 +14°C° 0 mm 6 mps 729 mmHg 58%
    05:00 +13°C° 0 mm 6 mps 729 mmHg 60%
    06:00 +12°C° 0 mm 7 mps 729 mmHg 57%
    07:00 +14°C° 0 mm 7 mps 729 mmHg 54%
    08:00 +13°C° 0 mm 8 mps 729 mmHg 51%
    09:00 +16°C° 0 mm 7 mps 729 mmHg 45%
    10:00 +17°C° 0 mm 7 mps 728 mmHg 38%
    11:00 +20°C° 0 mm 6 mps 728 mmHg 31%
    12:00 +21°C° 0 mm 6 mps 728 mmHg 28%
    13:00 +22°C° 0 mm 6 mps 728 mmHg 25%
    14:00 +23°C° 0 mm 6 mps 727 mmHg 21%
    15:00 +23°C° 0 mm 5 mps 727 mmHg 21%
    16:00 +23°C° 0 mm 5 mps 727 mmHg 21%
    17:00 +23°C° 0 mm 4 mps 727 mmHg 21%
    18:00 +22°C° 0 mm 4 mps 727 mmHg 24%
    19:00 +20°C° 0 mm 3 mps 727 mmHg 26%
    20:00 +19°C° 0 mm 3 mps 727 mmHg 28%
    21:00 +18°C° 0 mm 3 mps 726 mmHg 30%
    22:00 +18°C° 0 mm 3 mps 726 mmHg 31%
    23:00 +17°C° 0 mm 3 mps 726 mmHg 32%

    28 September, Friday

    Time Temperature Precipitation Wind Pressure Humidity
    00:00 +17°C° 0 mm 3 mps 726 mmHg 36%
    01:00 +15°C° 0 mm 4 mps 725 mmHg 39%
    02:00 +15°C° 0 mm 5 mps 725 mmHg 43%
    03:00 +14°C° 0 mm 4 mps 725 mmHg 45%
    04:00 +14°C° 0 mm 4 mps 725 mmHg 48%
    05:00 +13°C° 0 mm 4 mps 725 mmHg 50%
    06:00 +14°C° 0 mm 4 mps 725 mmHg 47%
    07:00 +14°C° 0 mm 4 mps 725 mmHg 45%
    08:00 +15°C° 0 mm 4 mps 725 mmHg 42%
    09:00 +18°C° 0 mm 3 mps 725 mmHg 37%
    10:00 +19°C° 0 mm 3 mps 725 mmHg 32%
    11:00 +20°C° 0 mm 2 mps 725 mmHg 27%
    12:00 +21°C° 0 mm 2 mps 725 mmHg 25%
    13:00 +23°C° 0 mm 2 mps 725 mmHg 22%
    14:00 +24°C° 0 mm 2 mps 725 mmHg 20%
    15:00 +23°C° 0 mm 2 mps 725 mmHg 20%
    16:00 +23°C° 0 mm 2 mps 725 mmHg 20%
    17:00 +23°C° 0 mm 2 mps 725 mmHg 21%
    18:00 +21°C° 0 mm 2 mps 725 mmHg 23%
    19:00 +20°C° 0 mm 2 mps 725 mmHg 25%
    20:00 +19°C° 0 mm 2 mps 725 mmHg 27%
    21:00 +19°C° 0 mm 2 mps 725 mmHg 28%
    22:00 +18°C° 0 mm 2 mps 725 mmHg 28%
    23:00 +18°C° 0 mm 2 mps 725 mmHg 29%

    29 September, Saturday

    Time Temperature Precipitation Wind Pressure Humidity
    00:00 +17°C° 0 mm 2 mps 725 mmHg 30%
    01:00 +17°C° 0 mm 2 mps 725 mmHg 31%
    02:00 +16°C° 0 mm 2 mps 725 mmHg 32%
    03:00 +16°C° 0 mm 2 mps 725 mmHg 33%
    04:00 +16°C° 0 mm 2 mps 725 mmHg 34%
    05:00 +15°C° 0 mm 2 mps 726 mmHg 35%
    06:00 +16°C° 0 mm 2 mps 726 mmHg 32%
    07:00 +18°C° 0 mm 2 mps 726 mmHg 30%
    08:00 +19°C° 0 mm 2 mps 727 mmHg 28%
    09:00 +20°C° 0 mm 3 mps 727 mmHg 25%
    10:00 +22°C° 0 mm 3 mps 727 mmHg 23%
    11:00 +23°C° 0 mm 4 mps 728 mmHg 21%
    12:00 +25°C° 0 mm 4 mps 728 mmHg 21%
    13:00 +25°C° 0 mm 4 mps 728 mmHg 21%
    14:00 +26°C° 0 mm 4 mps 728 mmHg 21%
    15:00 +25°C° 0 mm 4 mps 728 mmHg 22%
    16:00 +25°C° 0 mm 4 mps 728 mmHg 23%
    17:00 +25°C° 0 mm 3 mps 728 mmHg 24%
    18:00 +22°C° 0 mm 3 mps 729 mmHg 27%
    19:00 +21°C° 0 mm 3 mps 729 mmHg 30%
    20:00 +20°C° 0 mm 2 mps 729 mmHg 33%
    21:00 +19°C° 0 mm 2 mps 729 mmHg 35%
    22:00 +19°C° 0 mm 2 mps 729 mmHg 37%
    23:00 +18°C° 0 mm 2 mps 729 mmHg 39%
    Show more